Date String (YYYY-MM-DD hh:mm:ss) UTC,Instrument flags,Ambient pressure (hPa),Sample flow (lpm),Bypass flow (lpm),Sample temperature (°C),Ambient temperature (°C),ASC tube jacket temperature (°C),LED temperature (°C),Box temperature (°C),Sample RH (%),Span deviation,Mass concentration (μg/m³),Mass concentration (μg/m³),Mass concentration (μg/m³)
DateTimeUTC,F1_M11,P_M11,Q1_M11,Q2_M11,T1_M11,T2_M11,T3_M11,T4_M11,T5_M11,U1_M11,ZSPAN_M11,X0_M11,X2_M11,X1_M11
2022-03-10 09:00:00,,0823.0,4.99,0.00,22.1,21.1,00.0,31.1,23.7,05.2,0000.0,0006.10,0003.84,0003.66
2022-03-10 09:01:00,,0823.0,4.99,0.00,22.0,21.0,00.0,31.1,23.7,05.2,0000.0,0006.09,0003.85,0003.66
2022-03-10 09:02:00,,0823.0,5.01,0.00,22.0,21.2,00.0,31.1,23.7,05.2,0000.0,0005.96,0003.85,0003.66
2022-03-10 09:03:00,,0822.9,5.00,0.00,22.1,22.0,00.0,31.1,23.9,05.2,0000.0,0005.99,0003.87,0003.67
2022-03-10 09:04:00,,0823.1,4.99,0.00,22.2,22.8,00.0,31.1,24.1,05.2,0000.0,0006.04,0003.88,0003.68
2022-03-10 09:05:00,,0822.9,5.01,0.00,22.4,23.2,00.0,31.2,24.3,05.2,0000.0,0005.93,0003.87,0003.68
2022-03-10 09:06:00,,0823.0,5.01,0.00,22.4,22.8,00.0,31.2,24.3,05.1,0000.0,0006.68,0003.88,0003.68
2022-03-10 09:07:00,,0822.9,4.98,0.00,22.4,22.4,00.0,31.2,24.2,05.1,0000.0,0006.99,0003.89,0003.70
2022-03-10 09:08:00,,0822.9,5.01,0.00,22.3,22.0,00.0,31.2,24.1,05.2,0000.0,0006.97,0003.89,0003.69
2022-03-10 09:09:00,,0823.0,4.99,0.00,22.3,21.7,00.0,31.2,24.0,05.2,0000.0,0006.10,0003.89,0003.69
2022-03-10 09:10:00,,0823.0,5.00,0.00,22.2,21.5,00.0,31.2,23.9,05.2,0000.0,0006.13,0003.90,0003.70
2022-03-10 09:11:00,,0823.0,5.01,0.00,22.2,21.3,00.0,31.2,23.8,05.2,0000.0,0006.17,0003.91,0003.71
2022-03-10 09:12:00,,0822.9,4.99,0.00,22.1,21.1,00.0,31.2,23.7,05.2,0000.0,0006.84,0003.92,0003.74
2022-03-10 09:13:00,,0822.9,5.00,0.00,22.1,20.9,00.0,31.1,23.7,05.2,0000.0,0007.38,0003.94,0003.75
2022-03-10 09:14:00,,0822.9,5.01,0.00,22.0,20.7,00.0,31.1,23.6,05.3,0000.0,0007.37,0003.95,0003.76
2022-03-10 09:15:00,,0822.9,5.00,0.00,22.0,21.2,00.0,31.1,23.6,05.3,0000.0,0007.38,0003.96,0003.77
2022-03-10 09:16:00,,0822.9,4.99,0.00,22.1,22.1,00.0,31.1,23.9,05.2,0000.0,0007.38,0003.97,0003.78
2022-03-10 09:17:00,,0823.0,5.01,0.00,22.2,22.8,00.0,31.2,24.1,05.2,0000.0,0006.83,0003.98,0003.79
2022-03-10 09:18:00,,0823.0,4.99,0.00,22.3,22.5,00.0,31.2,24.1,05.2,0000.0,0006.40,0003.99,0003.80
2022-03-10 09:19:00,,0822.9,5.01,0.00,22.3,22.1,00.0,31.2,24.1,05.2,0000.0,0006.41,0003.99,0003.82
2022-03-10 09:20:00,,0822.9,5.00,0.00,22.2,21.6,00.0,31.2,23.9,05.2,0000.0,0006.45,0004.02,0003.84
2022-03-10 09:21:00,,0822.7,4.99,0.00,22.1,21.2,00.0,31.1,23.8,05.2,0000.0,0006.53,0004.05,0003.85
2022-03-10 09:22:00,,0822.7,5.01,0.00,22.1,20.9,00.0,31.1,23.6,05.3,0000.0,0006.97,0004.06,0003.85
2022-03-10 09:23:00,,0822.7,5.00,0.00,22.0,20.7,00.0,31.1,23.5,05.3,0000.0,0007.41,0004.07,0003.85
2022-03-10 09:24:00,,0822.7,4.99,0.00,21.9,20.7,00.0,31.0,23.4,05.3,0000.0,0007.47,0004.09,0003.86
2022-03-10 09:25:00,,0822.7,5.00,0.00,21.9,21.4,00.0,31.1,23.6,05.3,0000.0,0007.51,0004.10,0003.86
2022-03-10 09:26:00,,0822.7,5.01,0.00,22.1,22.3,00.0,31.1,23.9,05.3,0000.0,0007.48,0004.10,0003.87
2022-03-10 09:27:00,,0822.7,5.00,0.00,22.2,22.7,00.0,31.1,24.1,05.2,0000.0,0007.59,0004.12,0003.87
2022-03-10 09:28:00,,0822.8,4.99,0.00,22.2,22.3,00.0,31.1,24.1,05.2,0000.0,0007.62,0004.13,0003.88
2022-03-10 09:29:00,,0822.8,5.00,0.00,22.2,21.9,00.0,31.1,24.0,05.2,0000.0,0007.63,0004.15,0003.89
2022-03-10 09:30:00,,0822.7,5.00,0.00,22.1,21.5,00.0,31.1,23.8,05.2,0000.0,0007.71,0004.18,0003.90
2022-03-10 09:31:00,,0822.7,5.01,0.00,22.1,21.2,00.0,31.1,23.7,05.3,0000.0,0007.71,0004.17,0003.90
2022-03-10 09:32:00,,0822.7,4.99,0.00,22.0,21.0,00.0,31.1,23.6,05.3,0000.0,0007.71,0004.18,0003.91
2022-03-10 09:33:00,,0822.6,5.00,0.00,22.0,20.8,00.0,31.1,23.6,05.3,0000.0,0007.75,0004.19,0003.92
2022-03-10 09:34:00,,0822.7,5.00,0.00,21.9,20.8,00.0,31.0,23.5,05.3,0000.0,0006.56,0004.21,0003.93
2022-03-10 09:35:00,,0822.7,5.00,0.00,22.0,21.6,00.0,31.0,23.6,05.3,0000.0,0006.18,0004.18,0003.93
2022-03-10 09:36:00,,0822.7,4.99,0.00,22.1,22.4,00.0,31.1,23.9,05.2,0000.0,0005.83,0004.17,0003.93
2022-03-10 09:37:00,,0822.8,5.00,0.00,22.2,22.9,00.0,31.1,24.1,05.2,0000.0,0005.85,0004.19,0003.94
2022-03-10 09:38:00,,0822.7,5.01,0.00,22.3,22.6,00.0,31.1,24.1,05.2,0000.0,0005.76,0004.19,0003.94
2022-03-10 09:39:00,,0822.7,4.99,0.00,22.2,22.1,00.0,31.1,24.0,05.2,0000.0,0005.75,0004.18,0003.94
2022-03-10 09:40:00,,0822.7,5.00,0.00,22.2,21.7,00.0,31.1,23.9,05.2,0000.0,0005.78,0004.17,0003.93
2022-03-10 09:41:00,,0822.7,5.00,0.00,22.1,21.4,00.0,31.1,23.8,05.2,0000.0,0005.72,0004.17,0003.93
2022-03-10 09:42:00,,0822.7,5.01,0.00,22.1,21.1,00.0,31.1,23.7,05.2,0000.0,0005.80,0004.19,0003.94
2022-03-10 09:43:00,,0822.7,4.99,0.00,22.0,20.9,00.0,31.1,23.6,05.2,0000.0,0005.87,0004.20,0003.94
2022-03-10 09:44:00,,0822.6,5.01,0.00,22.0,20.7,00.0,31.0,23.5,05.3,0000.0,0005.88,0004.18,0003.93
2022-03-10 09:45:00,,0822.7,5.00,0.00,21.9,20.8,00.0,31.0,23.5,05.3,0000.0,0005.86,0004.17,0003.92
2022-03-10 09:46:00,,0822.7,5.00,0.00,22.0,21.7,00.0,31.1,23.7,05.3,0000.0,0005.92,0004.19,0003.93
2022-03-10 09:47:00,,0822.6,5.00,0.00,22.1,22.6,00.0,31.1,24.0,05.2,0000.0,0005.97,0004.20,0003.93
2022-03-10 09:48:00,,0822.6,4.99,0.00,22.2,22.7,00.0,31.1,24.1,05.2,0000.0,0006.09,0004.21,0003.94
2022-03-10 09:49:00,,0822.6,5.00,0.00,22.2,22.2,00.0,31.1,24.0,05.2,0000.0,0006.13,0004.21,0003.94
2022-03-10 09:50:00,,0822.6,5.00,0.00,22.2,21.7,00.0,31.1,23.9,05.2,0000.0,0006.14,0004.22,0003.95
2022-03-10 09:51:00,,0822.6,4.99,0.00,22.1,21.4,00.0,31.1,23.8,05.2,0000.0,0006.05,0004.21,0003.96
2022-03-10 09:52:00,,0822.6,5.01,0.00,22.0,21.0,00.0,31.1,23.6,05.2,0000.0,0006.10,0004.21,0003.96
2022-03-10 09:53:00,,0822.7,4.99,0.00,22.0,20.8,00.0,31.0,23.6,05.3,0000.0,0006.43,0004.22,0003.96
2022-03-10 09:54:00,,0822.7,5.01,0.00,21.9,20.7,00.0,31.0,23.5,05.3,0000.0,0007.04,0004.23,0003.97
2022-03-10 09:55:00,,0822.7,5.00,0.00,21.9,21.3,00.0,31.0,23.6,05.3,0000.0,0006.93,0004.22,0003.97
2022-03-10 09:56:00,,0822.6,4.99,0.00,22.0,22.2,00.0,31.1,23.8,05.2,0000.0,0006.91,0004.21,0003.96
2022-03-10 09:57:00,,0822.6,5.01,0.00,22.2,22.8,00.0,31.1,24.1,05.2,0000.0,0006.82,0004.20,0003.96
2022-03-10 09:58:00,,0822.6,4.99,0.00,22.2,22.7,00.0,31.1,24.1,05.2,0000.0,0006.67,0004.19,0003.96
2022-03-10 09:59:00,,0822.5,5.00,0.00,22.2,22.3,00.0,31.1,24.1,05.2,0000.0,0006.59,0004.17,0003.95
